Location: Unspecified
(42.3650°N, 71.1030°W)
Time: 01:42:51
(UTC+00:00)

Vanguard 3 - Pass Details

Date: 03 July 2024
Orbit: 508 x 3230 km, 33.4° (Epoch: 20 July)

Event Time Altitude Azimuth Distance (km) Brightness Sun altitude
Exits shadow 08:01:37 - 202° (SSW) 6,396 11.1 -11.0°
Reaches altitude 10° 08:03:12 10° 199° (SSW) 6,142 11.1 -10.8°
Maximum altitude 08:18:40 31° 148° (SSE) 4,375 10.8 -8.8°
Drops below altitude 10° 08:31:19 10° 95° (E) 5,063 11.9 -7.0°
Sets 08:35:19 0° 85° (E) 5,713 12.5 -6.4°
